Regional Weather Roundup
Issued by NWS

Home | Current Version | Previous Version | Text Only | Print | Product List | Glossary Off
Versions: 1 2 3 4 5 6 7 8 9 10 11 12 13 14 15 16 17 18 19 20 21 22 23 24 25 26 27 28 29 30 31 32 33 34 35 36 37 38 39 40 41 42 43 44 45 46 47 48 49 50

026
ASUS43 KOAX 221902
RWRNE

WEATHER ROUNDUP FOR NEBRASKA
NATIONAL WEATHER SERVICE OMAHA NE
200 PM CDT WED MAR 22 2017

NOTES: SATELLITE DATA IS BEING USED TO AUGMENT CLOUD COVER ABOVE
       12000 FEET.
       "FAIR" INDICATES FEW OR NO CLOUDS BELOW 12,000 FEET WITH NO
       SIGNIFICANT WEATHER AND/OR OBSTRUCTIONS TO VISIBILITY.

  * THESE STATIONS DO NOT REPORT WEATHER SUCH AS RAIN...SNOW OR FOG.

NEZ001>004-019>022-054>056-222000-
NEBRASKA PANHANDLE

CITY           SKY/WX    TMP DP  RH WIND       PRES   REMARKS
SCOTTSBLUFF    CLOUDY    60  31  33 SE16G23   29.92F
ALLIANCE       CLOUDY    52  34  50 S22G30    29.96F
CHADRON        CLOUDY    57  35  43 S21       29.88F
KIMBALL        CLOUDY    59  36  41 SE14      29.96F
SIDNEY         CLOUDY    58  35  42 S20G30    29.98F
$$

NEZ057>060-069>072-079>082-222000-
SOUTHWEST NEBRASKA

CITY           SKY/WX    TMP DP  RH WIND       PRES   REMARKS
NORTH PLATTE   CLOUDY    47  26  44 S15       30.10F
IMPERIAL       CLOUDY    55  33  43 S22G28    30.05F
LEXINGTON      CLOUDY    46  25  44 SE16      30.16F
MCCOOK         CLOUDY    48  27  44 S15       30.12F
OGALLALA       MOSUNNY   57  33  41 S17G28    30.03F
$$

NEZ005>010-023>029-035>040-094-222000-
NORTH CENTRAL NEBRASKA

CITY           SKY/WX    TMP DP  RH WIND       PRES   REMARKS
VALENTINE      CLOUDY    50  30  46 S28G37    30.02F
AINSWORTH      CLOUDY    45  31  57 S25G32    30.07F
BROKEN BOW     CLOUDY    46  22  38 S22G30    30.14F
O`NEILL        CLOUDY    42  29  58 SE17      30.17F
ORD            CLOUDY    48  19  31 S17G29    30.17F
THEDFORD       MOSUNNY   49  30  46 S24       30.07F
$$

NEZ041-046>049-061>064-073>077-083>087-222000-
SOUTH CENTRAL NEBRASKA

CITY           SKY/WX    TMP DP  RH WIND       PRES   REMARKS
GRAND ISLAND   CLOUDY    51  21  30 S17G23    30.21F
AURORA         PTSUNNY   53  19  26 SE18      30.21F
HASTINGS       CLOUDY    53  22  29 SE16G25   30.21F
HEBRON         CLOUDY    55  19  25 SE15G22   30.23F
HOLDREGE       CLOUDY    48  24  39 SE15G25   30.17F
KEARNEY *      CLOUDY    48  25  40 S15       30.19F
YORK           CLOUDY    50  18  27 SE15      30.24F
$$

NEZ011>018-030>034-042>045-222000-
NORTHEAST NEBRASKA

CITY           SKY/WX    TMP DP  RH WIND       PRES   REMARKS
NORFOLK        CLOUDY    44  20  38 SE16      30.25F
ALBION         CLOUDY    49  13  23 S18       30.22F
BLAIR          MOSUNNY   49  21  32 SE16G22   30.30F
FREMONT        CLOUDY    48  20  33 SE17      30.30F
TEKAMAH        CLOUDY    46  21  37 SE17      30.33F
WAYNE          CLOUDY    42  27  55 SE16G23   30.29F
$$

NEZ050>053-065>068-078-088>093-222000-
SOUTHEAST NEBRASKA

CITY           SKY/WX    TMP DP  RH WIND       PRES   REMARKS
LINCOLN        CLOUDY    51  19  28 SE15      30.29F
OMAHA EPPLEY   PTSUNNY   50  21  32 SE16      30.33F
BEATRICE       CLOUDY    54  21  27 SE15G21   30.26F
FALLS CITY     SUNNY     53  23  31 E13G20    30.31F
NEBRASKA CITY  CLOUDY    50  13  22 SE14      30.32F
PLATTSMOUTH    CLOUDY    47  19  32 SE13G18   30.32F
$$

NEZ044-045-051>053-067-222000-
OMAHA AREA

CITY           SKY/WX    TMP DP  RH WIND       PRES   REMARKS
OMAHA EPPLEY   PTSUNNY   50  21  32 SE16      30.33F
BLAIR          MOSUNNY   49  21  32 SE16G22   30.30F
FREMONT        CLOUDY    48  20  33 SE17      30.30F
MILLARD        PTSUNNY   50  24  37 SE17G23   30.31F
OFFUTT AFB       N/A    N/A N/A N/A SE22        N/A
PLATTSMOUTH    CLOUDY    47  19  32 SE13G18   30.32F
WAHOO          CLOUDY    48  21  34 SE17G23   30.29F
$$




USA.gov is the U.S. government's official web portal to all federal, state and local government web resources and services.